BREEZE-M R/B, 64468

Orbit data source: Space-Track

BREEZE-M R/B, 64468 is space debris in HEO originally from a launch on Thu, 19 Jun 2025 UTC launched from the Plesetsk Missile And Space Complex (PKMTR). Debris objects in space refer to the collection of defunct objects orbiting the Earth. Examples of debris include non-operational satellites, rocket bodies, and fragments generated from explosions, collisions, or faulty payload assembly.

Not visible in the next 10 days
Identifier
64468, 2025-131B
Orbit
HEO
Country
Flag of CISCIS
Related business
Manufacturer
Khrunichev
Mission
Spacecraft
Bus & Motor
BRIZ, Unknown motor
Mass
~1,600 kg wet, 1,600 kg dry
Launch date (UTC)
2025-06-19 (10 months ago)
Launch vehicle
Unknown
Launch site
Plesetsk Missile And Space Complex (PKMTR)
Object type
Payload
Rocket body
Debris
Shape & HBR
Cyl, 2.0 m
Radar Cross Section
15.135 m², Large (>1 m²)

Expand to show TLE details & history
Last TLE update: 1 month ago

TLE from 1 month ago
0 BREEZE-M R/B
1 64468U 25131B   26057.94119139 -.00000171  00000-0  00000+0 0  9996
2 64468   0.4308 302.5287 3864148 160.2548 302.1848  1.04432222  2639
Epoch: 2026-02-26T22:35Z
TLE epoch observation values (Epoch: 2026-02-26T22:35:18.936Z)
Latitude
0.33286°
Longitude
-135.61432°
Altitude
31,856.834 km
Speed
3.337 km/s
True Right ascension
23h 59m 59s
True Declination
0° 19' 57"
Sunlit
Object was in daylight at epoch
Visualization orbit readout
Latitude
Unknown
Longitude
Unknown
Altitude
Unknown
Speed
Unknown
Apparent Right ascension
Unknown
Apparent Declination
Unknown
Sunlit
N/A
Visualization observer readout
Local Sidereal Time
05:00:48
Azimuth
Unknown
Elevation
Unknown
Doppler factor
Unknown
Orbital elements
Apogee altitude
50,518.521 km
Perigee altitude
18,802.6 km
Semi-major axis
41,038.698 km
Eccentricity
0.38641
Inclination
0.4308°
RAAN
302.5287°
Arg. of periapsis
160.2548°
True anomaly
257.2217°
Mean anomaly
302.1848°
Eccentric anomaly
280.40923°
Mean motion
0.26107 °/min
Orbital period
1,378.95 mins
BSTAR
0
Loading maneuver chart data...
Computing Atmospheric mass density...
Loading historical data...
Loading historical data...
Loading historical data...
Loading historical data...
Loading historical data...
Loading historical data...
Loading historical data...
Other satellites on launch #131 in the year 2025 (2025-06-19 UTC)

Documentation

Showing up to 5 results
|